Year,Month,Day,Hour,Minute,Value (Times are PST for temperature in C)
2021,06,28,00,00,24.00
2021,06,28,00,01,24.00
2021,06,28,00,02,24.00
2021,06,28,00,03,23.90
2021,06,28,00,04,23.90
2021,06,28,00,05,23.90
2021,06,28,00,06,23.90
2021,06,28,00,07,23.90
2021,06,28,00,08,23.90
2021,06,28,00,09,23.90
2021,06,28,00,10,23.90
2021,06,28,00,11,23.80
2021,06,28,00,12,23.80
2021,06,28,00,13,23.80
2021,06,28,00,14,23.80
2021,06,28,00,15,23.80
2021,06,28,00,16,23.80
2021,06,28,00,17,23.80
2021,06,28,00,18,23.80
2021,06,28,00,19,23.80
2021,06,28,00,20,23.70
2021,06,28,00,21,23.70
2021,06,28,00,22,23.70
2021,06,28,00,23,23.70
2021,06,28,00,24,23.70
2021,06,28,00,25,23.70
2021,06,28,00,26,23.70
2021,06,28,00,27,23.70
2021,06,28,00,28,23.70
2021,06,28,00,29,23.70
2021,06,28,00,30,23.70
2021,06,28,00,31,23.70
2021,06,28,00,32,23.70
2021,06,28,00,33,23.70
2021,06,28,00,34,23.60
2021,06,28,00,35,23.60
2021,06,28,00,36,23.60
2021,06,28,00,37,23.60
2021,06,28,00,38,23.60
2021,06,28,00,39,23.50
2021,06,28,00,40,23.50
2021,06,28,00,41,23.50
2021,06,28,00,42,23.50
2021,06,28,00,43,23.40
2021,06,28,00,44,23.40
2021,06,28,00,45,23.40
2021,06,28,00,46,23.40
2021,06,28,00,47,23.30
2021,06,28,00,48,23.30
2021,06,28,00,49,23.30
2021,06,28,00,50,23.30
2021,06,28,00,51,23.30
2021,06,28,00,52,23.30
2021,06,28,00,53,23.30
2021,06,28,00,54,23.30
2021,06,28,00,55,23.30
2021,06,28,00,56,23.30
2021,06,28,00,57,23.30
2021,06,28,00,58,23.30
2021,06,28,00,59,23.30
2021,06,28,01,00,23.30
2021,06,28,01,01,23.30
2021,06,28,01,02,23.20
2021,06,28,01,03,23.20
2021,06,28,01,04,23.20
2021,06,28,01,05,23.20
2021,06,28,01,06,23.20
2021,06,28,01,07,23.10
2021,06,28,01,08,23.10
2021,06,28,01,09,23.10
2021,06,28,01,10,23.10
2021,06,28,01,11,23.10
2021,06,28,01,12,23.10
2021,06,28,01,13,23.10
2021,06,28,01,14,23.10
2021,06,28,01,15,23.00
2021,06,28,01,16,23.00
2021,06,28,01,17,23.00
2021,06,28,01,18,22.90
2021,06,28,01,19,22.90
2021,06,28,01,20,22.90
2021,06,28,01,21,22.90
2021,06,28,01,22,22.90
2021,06,28,01,23,22.90
2021,06,28,01,24,22.80
2021,06,28,01,25,22.80
2021,06,28,01,26,22.80
2021,06,28,01,27,22.80
2021,06,28,01,28,22.80
2021,06,28,01,29,22.80
2021,06,28,01,30,22.80
2021,06,28,01,31,22.80
2021,06,28,01,32,22.80
2021,06,28,01,33,22.80
2021,06,28,01,34,22.80
2021,06,28,01,35,22.80
2021,06,28,01,36,22.80
2021,06,28,01,37,22.80
2021,06,28,01,38,22.80
2021,06,28,01,39,22.70
2021,06,28,01,40,22.70
2021,06,28,01,41,22.70
2021,06,28,01,42,22.70
2021,06,28,01,43,22.70
2021,06,28,01,44,22.70
2021,06,28,01,45,22.70
2021,06,28,01,46,22.70
2021,06,28,01,47,22.70
2021,06,28,01,48,22.70
2021,06,28,01,49,22.70
2021,06,28,01,50,22.70
2021,06,28,01,51,22.70
2021,06,28,01,52,22.70
2021,06,28,01,53,22.70
2021,06,28,01,54,22.70
2021,06,28,01,55,22.70
2021,06,28,01,56,22.70
2021,06,28,01,57,22.70
2021,06,28,01,58,22.70
2021,06,28,01,59,22.70
2021,06,28,02,00,22.70
2021,06,28,02,01,22.70
2021,06,28,02,02,22.70
2021,06,28,02,03,22.70
2021,06,28,02,04,22.60
2021,06,28,02,05,22.60
2021,06,28,02,06,22.60
2021,06,28,02,07,22.60
2021,06,28,02,08,22.60
2021,06,28,02,09,22.60
2021,06,28,02,10,22.50
2021,06,28,02,11,22.50
2021,06,28,02,12,22.50
2021,06,28,02,13,22.50
2021,06,28,02,14,22.50
2021,06,28,02,15,22.50
2021,06,28,02,16,22.40
2021,06,28,02,17,22.40
2021,06,28,02,18,22.40
2021,06,28,02,19,22.40
2021,06,28,02,20,22.40
2021,06,28,02,21,22.40
2021,06,28,02,22,22.40
2021,06,28,02,23,22.40
2021,06,28,02,24,22.40
2021,06,28,02,25,22.40
2021,06,28,02,26,22.40
2021,06,28,02,27,22.40
2021,06,28,02,28,22.40
2021,06,28,02,29,22.30
2021,06,28,02,30,22.30
2021,06,28,02,31,22.30
2021,06,28,02,32,22.30
2021,06,28,02,33,22.30
2021,06,28,02,34,22.30
2021,06,28,02,35,22.30
2021,06,28,02,36,22.30
2021,06,28,02,37,22.30
2021,06,28,02,38,22.30
2021,06,28,02,39,22.20
2021,06,28,02,40,22.20
2021,06,28,02,41,22.20
2021,06,28,02,42,22.20
2021,06,28,02,43,22.20
2021,06,28,02,44,22.10
2021,06,28,02,45,22.10
2021,06,28,02,46,22.20
2021,06,28,02,47,22.20
2021,06,28,02,48,22.20
2021,06,28,02,49,22.20
2021,06,28,02,50,22.20
2021,06,28,02,51,22.20
2021,06,28,02,52,22.20
2021,06,28,02,53,22.10
2021,06,28,02,54,22.10
2021,06,28,02,55,22.10
2021,06,28,02,56,22.10
2021,06,28,02,57,22.10
2021,06,28,02,58,22.10
2021,06,28,02,59,22.10
2021,06,28,03,00,22.10
2021,06,28,03,01,22.10
2021,06,28,03,02,22.10
2021,06,28,03,03,22.10
2021,06,28,03,04,22.00
2021,06,28,03,05,22.00
2021,06,28,03,06,22.00
2021,06,28,03,07,21.90
2021,06,28,03,08,21.90
2021,06,28,03,09,21.90
2021,06,28,03,10,21.90
2021,06,28,03,11,21.90
2021,06,28,03,12,21.90
2021,06,28,03,13,22.00
2021,06,28,03,14,22.00
2021,06,28,03,15,22.00
2021,06,28,03,16,22.00
2021,06,28,03,17,22.00
2021,06,28,03,18,22.00
2021,06,28,03,19,22.00
2021,06,28,03,20,21.90
2021,06,28,03,21,21.90
2021,06,28,03,22,22.00
2021,06,28,03,23,22.00
2021,06,28,03,24,22.00
2021,06,28,03,25,22.00
2021,06,28,03,26,22.00
2021,06,28,03,27,22.00
2021,06,28,03,28,22.00
2021,06,28,03,29,22.00
2021,06,28,03,30,22.00
2021,06,28,03,31,22.10
2021,06,28,03,32,22.10
2021,06,28,03,33,22.10
2021,06,28,03,34,22.20
2021,06,28,03,35,22.30
2021,06,28,03,36,22.30
2021,06,28,03,37,22.40
2021,06,28,03,38,22.40
2021,06,28,03,39,22.30
2021,06,28,03,40,22.30
2021,06,28,03,41,22.30
2021,06,28,03,42,22.30
2021,06,28,03,43,22.20
2021,06,28,03,44,22.20
2021,06,28,03,45,22.20
2021,06,28,03,46,22.20
2021,06,28,03,47,22.10
2021,06,28,03,48,22.10
2021,06,28,03,49,22.10
2021,06,28,03,50,22.10
2021,06,28,03,51,22.10
2021,06,28,03,52,22.10
2021,06,28,03,53,22.10
2021,06,28,03,54,22.10
2021,06,28,03,55,22.10
2021,06,28,03,56,22.10
2021,06,28,03,57,22.10
2021,06,28,03,58,22.00
2021,06,28,03,59,22.00
2021,06,28,04,00,21.90
2021,06,28,04,01,21.90
2021,06,28,04,02,21.80
2021,06,28,04,03,21.80
2021,06,28,04,04,21.80
2021,06,28,04,05,21.80
2021,06,28,04,06,21.80
2021,06,28,04,07,21.80
2021,06,28,04,08,21.70
2021,06,28,04,09,21.70
2021,06,28,04,10,21.70
2021,06,28,04,11,21.70
2021,06,28,04,12,21.70
2021,06,28,04,13,21.70
2021,06,28,04,14,21.70
2021,06,28,04,15,21.70
2021,06,28,04,16,21.70
2021,06,28,04,17,21.70
2021,06,28,04,18,21.70
2021,06,28,04,19,21.70
2021,06,28,04,20,21.70
2021,06,28,04,21,21.70
2021,06,28,04,22,21.70
2021,06,28,04,23,21.70
2021,06,28,04,24,21.70
2021,06,28,04,25,21.70
2021,06,28,04,26,21.70
2021,06,28,04,27,21.70
2021,06,28,04,28,21.70
2021,06,28,04,29,21.70
2021,06,28,04,30,21.70
2021,06,28,04,31,21.70
2021,06,28,04,32,21.60
2021,06,28,04,33,21.60
2021,06,28,04,34,21.60
2021,06,28,04,35,21.60
2021,06,28,04,36,21.60
2021,06,28,04,37,21.50
2021,06,28,04,38,21.50
2021,06,28,04,39,21.50
2021,06,28,04,40,21.50
2021,06,28,04,41,21.40
2021,06,28,04,42,21.40
2021,06,28,04,43,21.40
2021,06,28,04,44,21.40
2021,06,28,04,45,21.40
2021,06,28,04,46,21.40
2021,06,28,04,47,21.30
2021,06,28,04,48,21.30
2021,06,28,04,49,21.30
2021,06,28,04,50,21.30
2021,06,28,04,51,21.20
2021,06,28,04,52,21.20
2021,06,28,04,53,21.20
2021,06,28,04,54,21.20
2021,06,28,04,55,21.20
2021,06,28,04,56,21.20
2021,06,28,04,57,21.20
2021,06,28,04,58,21.20
2021,06,28,04,59,21.20
2021,06,28,05,00,21.20
2021,06,28,05,01,21.20
2021,06,28,05,02,21.20
2021,06,28,05,03,21.20
2021,06,28,05,04,21.20
2021,06,28,05,05,21.20
2021,06,28,05,06,21.20
2021,06,28,05,07,21.10
2021,06,28,05,08,21.10
2021,06,28,05,09,21.10
2021,06,28,05,10,21.10
2021,06,28,05,11,21.10
2021,06,28,05,12,21.00
2021,06,28,05,13,21.00
2021,06,28,05,14,21.00
2021,06,28,05,15,20.90
2021,06,28,05,16,20.90
2021,06,28,05,17,20.90
2021,06,28,05,18,20.90
2021,06,28,05,19,20.80
2021,06,28,05,20,20.80
2021,06,28,05,21,20.80
2021,06,28,05,22,20.80
2021,06,28,05,23,20.80
2021,06,28,05,24,20.70
2021,06,28,05,25,20.70
2021,06,28,05,26,20.70
2021,06,28,05,27,20.70
2021,06,28,05,28,20.70
2021,06,28,05,29,20.70
2021,06,28,05,30,20.70
2021,06,28,05,31,20.60
2021,06,28,05,32,20.60
2021,06,28,05,33,20.60
2021,06,28,05,34,20.60
2021,06,28,05,35,20.60
2021,06,28,05,36,20.70
2021,06,28,05,37,20.70
2021,06,28,05,38,20.70
2021,06,28,05,39,20.80
2021,06,28,05,40,20.80
2021,06,28,05,41,20.80
2021,06,28,05,42,20.90
2021,06,28,05,43,20.90
2021,06,28,05,44,20.90
2021,06,28,05,45,21.00
2021,06,28,05,46,21.00
2021,06,28,05,47,21.00
2021,06,28,05,48,21.10
2021,06,28,05,49,21.20
2021,06,28,05,50,21.40
2021,06,28,05,51,21.60
2021,06,28,05,52,21.90
2021,06,28,05,53,22.10
2021,06,28,05,54,22.40
2021,06,28,05,55,22.60
2021,06,28,05,56,22.80
2021,06,28,05,57,23.10
2021,06,28,05,58,23.30
2021,06,28,05,59,23.40
2021,06,28,06,00,23.60
2021,06,28,06,01,23.80
2021,06,28,06,02,24.00
2021,06,28,06,03,24.10
2021,06,28,06,04,24.20
2021,06,28,06,05,24.30
2021,06,28,06,06,24.50
2021,06,28,06,07,24.70
2021,06,28,06,08,24.80
2021,06,28,06,09,25.00
2021,06,28,06,10,25.20
2021,06,28,06,11,25.40
2021,06,28,06,12,25.50
2021,06,28,06,13,25.60
2021,06,28,06,14,25.80
2021,06,28,06,15,25.90
2021,06,28,06,16,26.00
2021,06,28,06,17,26.00
2021,06,28,06,18,26.10
2021,06,28,06,19,26.20
2021,06,28,06,20,26.20
2021,06,28,06,21,26.30
2021,06,28,06,22,26.30
2021,06,28,06,23,26.40
2021,06,28,06,24,26.40
2021,06,28,06,25,26.50
2021,06,28,06,26,26.60
2021,06,28,06,27,26.60
2021,06,28,06,28,26.60
2021,06,28,06,29,26.70
2021,06,28,06,30,26.70
2021,06,28,06,31,26.80
2021,06,28,06,32,26.80
2021,06,28,06,33,26.80
2021,06,28,06,34,26.90
2021,06,28,06,35,26.90
2021,06,28,06,36,27.00
2021,06,28,06,37,27.10
2021,06,28,06,38,27.10
2021,06,28,06,39,27.20
2021,06,28,06,40,27.20
2021,06,28,06,41,27.30
2021,06,28,06,42,27.30
2021,06,28,06,43,27.30
2021,06,28,06,44,27.40
2021,06,28,06,45,27.50
2021,06,28,06,46,27.50
2021,06,28,06,47,27.60
2021,06,28,06,48,27.60
2021,06,28,06,49,27.70
2021,06,28,06,50,27.80
2021,06,28,06,51,27.80
2021,06,28,06,52,27.80
2021,06,28,06,53,27.90
2021,06,28,06,54,27.90
2021,06,28,06,55,27.90
2021,06,28,06,56,28.00
2021,06,28,06,57,28.00
2021,06,28,06,58,28.10
2021,06,28,06,59,28.10
2021,06,28,07,00,28.20
2021,06,28,07,01,28.20
2021,06,28,07,02,28.30
2021,06,28,07,03,28.30
2021,06,28,07,04,28.30
2021,06,28,07,05,28.40
2021,06,28,07,06,28.50
2021,06,28,07,07,28.50
2021,06,28,07,08,28.60
2021,06,28,07,09,28.60
2021,06,28,07,10,28.70
2021,06,28,07,11,28.70
2021,06,28,07,12,28.70
2021,06,28,07,13,28.80
2021,06,28,07,14,28.80
2021,06,28,07,15,28.80
2021,06,28,07,16,28.90
2021,06,28,07,17,28.90
2021,06,28,07,18,29.00
2021,06,28,07,19,29.00
2021,06,28,07,20,29.10
2021,06,28,07,21,29.10
2021,06,28,07,22,29.10
2021,06,28,07,23,29.20
2021,06,28,07,24,29.20
2021,06,28,07,25,29.30
2021,06,28,07,26,29.30
2021,06,28,07,27,29.30
2021,06,28,07,28,29.40
2021,06,28,07,29,29.40
2021,06,28,07,30,29.40
2021,06,28,07,31,29.50
2021,06,28,07,32,29.50
2021,06,28,07,33,29.60
2021,06,28,07,34,29.60
2021,06,28,07,35,29.70
2021,06,28,07,36,29.70
2021,06,28,07,37,29.80
2021,06,28,07,38,29.80
2021,06,28,07,39,29.80
2021,06,28,07,40,29.90
2021,06,28,07,41,29.90
2021,06,28,07,42,29.90
2021,06,28,07,43,30.00
2021,06,28,07,44,30.00
2021,06,28,07,45,30.10
2021,06,28,07,46,30.10
2021,06,28,07,47,30.20
2021,06,28,07,48,30.20
2021,06,28,07,49,30.20
2021,06,28,07,50,30.30
2021,06,28,07,51,30.30
2021,06,28,07,52,30.40
2021,06,28,07,53,30.40
2021,06,28,07,54,30.50
2021,06,28,07,55,30.50
2021,06,28,07,56,30.60
2021,06,28,07,57,30.60
2021,06,28,07,58,30.70
2021,06,28,07,59,30.70
2021,06,28,08,00,30.80
2021,06,28,08,01,30.80
2021,06,28,08,02,30.80
2021,06,28,08,03,30.80
2021,06,28,08,04,30.90
2021,06,28,08,05,30.90
2021,06,28,08,06,30.90
2021,06,28,08,07,31.00
2021,06,28,08,08,31.00
2021,06,28,08,09,31.00
2021,06,28,08,10,31.10
2021,06,28,08,11,31.10
2021,06,28,08,12,31.10
2021,06,28,08,13,31.20
2021,06,28,08,14,31.20
2021,06,28,08,15,31.20
2021,06,28,08,16,31.30
2021,06,28,08,17,31.30
2021,06,28,08,18,31.30
2021,06,28,08,19,31.40
2021,06,28,08,20,31.40
2021,06,28,08,21,31.50
2021,06,28,08,22,31.50
2021,06,28,08,23,31.60
2021,06,28,08,24,31.60
2021,06,28,08,25,31.60
2021,06,28,08,26,31.70
2021,06,28,08,27,31.70
2021,06,28,08,28,31.80
2021,06,28,08,29,31.80
2021,06,28,08,30,31.80
2021,06,28,08,31,31.90
2021,06,28,08,32,32.00
2021,06,28,08,33,32.00
2021,06,28,08,34,32.10
2021,06,28,08,35,32.20
2021,06,28,08,36,32.20
2021,06,28,08,37,32.30
2021,06,28,08,38,32.40
2021,06,28,08,39,32.40
2021,06,28,08,40,32.50
2021,06,28,08,41,32.50
2021,06,28,08,42,32.60
2021,06,28,08,43,32.60
2021,06,28,08,44,32.60
2021,06,28,08,45,32.60
2021,06,28,08,46,32.70
2021,06,28,08,47,32.70
2021,06,28,08,48,32.70
2021,06,28,08,49,32.70
2021,06,28,08,50,32.80
2021,06,28,08,51,32.80
2021,06,28,08,52,32.90
2021,06,28,08,53,32.90
2021,06,28,08,54,32.90
2021,06,28,08,55,32.90
2021,06,28,08,56,32.90
2021,06,28,08,57,32.90
2021,06,28,08,58,32.90
2021,06,28,08,59,32.90
2021,06,28,09,00,32.90
2021,06,28,09,01,32.90
2021,06,28,09,02,32.90
2021,06,28,09,03,32.90
2021,06,28,09,04,32.90
2021,06,28,09,05,33.00
2021,06,28,09,06,33.00
2021,06,28,09,07,33.00
2021,06,28,09,08,33.10
2021,06,28,09,09,33.10
2021,06,28,09,10,33.20
2021,06,28,09,11,33.20
2021,06,28,09,12,33.20
2021,06,28,09,13,33.20
2021,06,28,09,14,33.20
2021,06,28,09,15,33.20
2021,06,28,09,16,33.20
2021,06,28,09,17,33.20
2021,06,28,09,18,33.20
2021,06,28,09,19,33.10
2021,06,28,09,20,33.00
2021,06,28,09,21,33.00
2021,06,28,09,22,32.90
2021,06,28,09,23,32.80
2021,06,28,09,24,32.70
2021,06,28,09,25,32.70
2021,06,28,09,26,32.60
2021,06,28,09,27,32.60
2021,06,28,09,28,32.60
2021,06,28,09,29,32.60
2021,06,28,09,30,32.60
2021,06,28,09,31,32.60
2021,06,28,09,32,32.60
2021,06,28,09,33,32.60
2021,06,28,09,34,32.60
2021,06,28,09,35,32.60
2021,06,28,09,36,32.60
2021,06,28,09,37,32.60
2021,06,28,09,38,32.60
2021,06,28,09,39,32.70
2021,06,28,09,40,32.70
2021,06,28,09,41,32.80
2021,06,28,09,42,32.80
2021,06,28,09,43,32.80
2021,06,28,09,44,32.80
2021,06,28,09,45,32.80
2021,06,28,09,46,32.80
2021,06,28,09,47,32.80
2021,06,28,09,48,32.90
2021,06,28,09,49,33.00
2021,06,28,09,50,33.00
2021,06,28,09,51,33.20
2021,06,28,09,52,33.30
2021,06,28,09,53,33.40
2021,06,28,09,54,33.50
2021,06,28,09,55,33.60
2021,06,28,09,56,33.60
2021,06,28,09,57,33.60
2021,06,28,09,58,33.60
2021,06,28,09,59,33.60
2021,06,28,10,00,33.60
2021,06,28,10,01,33.60
2021,06,28,10,02,33.60
2021,06,28,10,03,33.60
2021,06,28,10,04,33.60
2021,06,28,10,05,33.60
2021,06,28,10,06,33.50
2021,06,28,10,07,33.50
2021,06,28,10,08,33.40
2021,06,28,10,09,33.30
2021,06,28,10,10,33.30
2021,06,28,10,11,33.30
2021,06,28,10,12,33.30
2021,06,28,10,13,33.30
2021,06,28,10,14,33.20
2021,06,28,10,15,33.20
2021,06,28,10,16,33.20
2021,06,28,10,17,33.20
2021,06,28,10,18,33.20
2021,06,28,10,19,33.20
2021,06,28,10,20,33.20
2021,06,28,10,21,33.20
2021,06,28,10,22,33.10
2021,06,28,10,23,33.10
2021,06,28,10,24,33.10
2021,06,28,10,25,33.00
2021,06,28,10,26,32.90
2021,06,28,10,27,32.90
2021,06,28,10,28,32.90
2021,06,28,10,29,32.80
2021,06,28,10,30,32.70
2021,06,28,10,31,32.70
2021,06,28,10,32,32.70
2021,06,28,10,33,32.80
2021,06,28,10,34,32.80
2021,06,28,10,35,32.70
2021,06,28,10,36,32.70
2021,06,28,10,37,32.70
2021,06,28,10,38,32.80
2021,06,28,10,39,32.80
2021,06,28,10,40,32.80
2021,06,28,10,41,32.70
2021,06,28,10,42,32.80
2021,06,28,10,43,32.80
2021,06,28,10,44,32.90
2021,06,28,10,45,33.00
2021,06,28,10,46,33.10
2021,06,28,10,47,33.20
2021,06,28,10,48,33.20
2021,06,28,10,49,33.20
2021,06,28,10,50,33.20
2021,06,28,10,51,33.20
2021,06,28,10,52,33.30
2021,06,28,10,53,33.30
2021,06,28,10,54,33.40
2021,06,28,10,55,33.50
2021,06,28,10,56,33.60
2021,06,28,10,57,33.60
2021,06,28,10,58,33.70
2021,06,28,10,59,33.80
2021,06,28,11,00,33.80
2021,06,28,11,01,33.90
2021,06,28,11,02,33.80
2021,06,28,11,03,33.80
2021,06,28,11,04,33.80
2021,06,28,11,05,33.90
2021,06,28,11,06,33.90
2021,06,28,11,07,33.90
2021,06,28,11,08,34.00
2021,06,28,11,09,34.00
2021,06,28,11,10,33.90
2021,06,28,11,11,33.90
2021,06,28,11,12,33.90
2021,06,28,11,13,33.80
2021,06,28,11,14,33.80
2021,06,28,11,15,33.80
2021,06,28,11,16,33.90
2021,06,28,11,17,34.00
2021,06,28,11,18,34.00
2021,06,28,11,19,34.10
2021,06,28,11,20,34.00
2021,06,28,11,21,34.10
2021,06,28,11,22,34.10
2021,06,28,11,23,34.20
2021,06,28,11,24,34.20
2021,06,28,11,25,34.20
2021,06,28,11,26,34.20
2021,06,28,11,27,34.20
2021,06,28,11,28,34.20
2021,06,28,11,29,34.20
2021,06,28,11,30,34.20
2021,06,28,11,31,34.20
2021,06,28,11,32,34.30
2021,06,28,11,33,34.40
2021,06,28,11,34,34.50
2021,06,28,11,35,34.50
2021,06,28,11,36,34.60
2021,06,28,11,37,34.70
2021,06,28,11,38,34.70
2021,06,28,11,39,34.70
2021,06,28,11,40,34.70
2021,06,28,11,41,34.70
2021,06,28,11,42,34.70
2021,06,28,11,43,34.60
2021,06,28,11,44,34.60
2021,06,28,11,45,34.60
2021,06,28,11,46,34.60
2021,06,28,11,47,34.60
2021,06,28,11,48,34.60
2021,06,28,11,49,34.60
2021,06,28,11,50,34.60
2021,06,28,11,51,34.70
2021,06,28,11,52,34.70
2021,06,28,11,53,34.80
2021,06,28,11,54,34.80
2021,06,28,11,55,34.80
2021,06,28,11,56,34.80
2021,06,28,11,57,34.90
2021,06,28,11,58,34.90
2021,06,28,11,59,34.90
2021,06,28,12,00,34.90
2021,06,28,12,01,35.00
2021,06,28,12,02,35.00
2021,06,28,12,03,35.00
2021,06,28,12,04,35.10
2021,06,28,12,05,35.10
2021,06,28,12,06,35.00
2021,06,28,12,07,34.90
2021,06,28,12,08,34.80
2021,06,28,12,09,34.80
2021,06,28,12,10,34.80
2021,06,28,12,11,34.80
2021,06,28,12,12,34.80
2021,06,28,12,13,34.90
2021,06,28,12,14,34.90
2021,06,28,12,15,35.00
2021,06,28,12,16,35.00
2021,06,28,12,17,35.00
2021,06,28,12,18,34.90
2021,06,28,12,19,34.90
2021,06,28,12,20,34.90
2021,06,28,12,21,34.90
2021,06,28,12,22,34.90
2021,06,28,12,23,34.90
2021,06,28,12,24,34.90
2021,06,28,12,25,34.90
2021,06,28,12,26,34.90
2021,06,28,12,27,35.00
2021,06,28,12,28,35.00
2021,06,28,12,29,35.10
2021,06,28,12,30,35.10
2021,06,28,12,31,35.10
2021,06,28,12,32,35.10
2021,06,28,12,33,35.00
2021,06,28,12,34,34.90
2021,06,28,12,35,34.80
2021,06,28,12,36,34.90
2021,06,28,12,37,34.90
2021,06,28,12,38,34.90
2021,06,28,12,39,35.00
2021,06,28,12,40,35.00
2021,06,28,12,41,35.00
2021,06,28,12,42,35.00
2021,06,28,12,43,34.90
2021,06,28,12,44,34.90
2021,06,28,12,45,34.90
2021,06,28,12,46,34.90
2021,06,28,12,47,34.80
2021,06,28,12,48,34.80
2021,06,28,12,49,34.90
2021,06,28,12,50,35.00
2021,06,28,12,51,35.10
2021,06,28,12,52,35.10
2021,06,28,12,53,35.10
2021,06,28,12,54,35.20
2021,06,28,12,55,35.10
2021,06,28,12,56,35.20
2021,06,28,12,57,35.20
2021,06,28,12,58,35.10
2021,06,28,12,59,35.10
2021,06,28,13,00,35.10
2021,06,28,13,01,35.20
2021,06,28,13,02,35.20
2021,06,28,13,03,35.20
2021,06,28,13,04,35.20
2021,06,28,13,05,35.10
2021,06,28,13,06,35.10
2021,06,28,13,07,35.10
2021,06,28,13,08,35.20
2021,06,28,13,09,35.40
2021,06,28,13,10,35.50
2021,06,28,13,11,35.50
2021,06,28,13,12,35.50
2021,06,28,13,13,35.50
2021,06,28,13,14,35.50
2021,06,28,13,15,35.40
2021,06,28,13,16,35.30
2021,06,28,13,17,35.30
2021,06,28,13,18,35.30
2021,06,28,13,19,35.30
2021,06,28,13,20,35.40
2021,06,28,13,21,35.50
2021,06,28,13,22,35.60
2021,06,28,13,23,35.60
2021,06,28,13,24,35.70
2021,06,28,13,25,35.60
2021,06,28,13,26,35.60
2021,06,28,13,27,35.60
2021,06,28,13,28,35.50
2021,06,28,13,29,35.50
2021,06,28,13,30,35.50
2021,06,28,13,31,35.60
2021,06,28,13,32,35.50
2021,06,28,13,33,35.50
2021,06,28,13,34,35.50
2021,06,28,13,35,35.40
2021,06,28,13,36,35.40
2021,06,28,13,37,35.40
2021,06,28,13,38,35.40
2021,06,28,13,39,35.50
2021,06,28,13,40,35.60
2021,06,28,13,41,35.80
2021,06,28,13,42,35.90
2021,06,28,13,43,36.00
2021,06,28,13,44,36.10
2021,06,28,13,45,36.00
2021,06,28,13,46,35.90
2021,06,28,13,47,35.90
2021,06,28,13,48,35.90
2021,06,28,13,49,35.90
2021,06,28,13,50,35.90
2021,06,28,13,51,35.90
2021,06,28,13,52,35.90
2021,06,28,13,53,35.90
2021,06,28,13,54,35.90
2021,06,28,13,55,35.80
2021,06,28,13,56,35.90
2021,06,28,13,57,36.00
2021,06,28,13,58,36.00
2021,06,28,13,59,36.00
2021,06,28,14,00,36.00
2021,06,28,14,01,35.90
2021,06,28,14,02,35.90
2021,06,28,14,03,36.00
2021,06,28,14,04,36.10
2021,06,28,14,05,36.20
2021,06,28,14,06,36.30
2021,06,28,14,07,36.30
2021,06,28,14,08,36.20
2021,06,28,14,09,36.20
2021,06,28,14,10,36.10
2021,06,28,14,11,36.10
2021,06,28,14,12,36.20
2021,06,28,14,13,36.20
2021,06,28,14,14,36.10
2021,06,28,14,15,36.10
2021,06,28,14,16,36.10
2021,06,28,14,17,36.10
2021,06,28,14,18,36.10
2021,06,28,14,19,36.10
2021,06,28,14,20,36.20
2021,06,28,14,21,36.20
2021,06,28,14,22,36.20
2021,06,28,14,23,36.20
2021,06,28,14,24,36.30
2021,06,28,14,25,36.40
2021,06,28,14,26,36.50
2021,06,28,14,27,36.60
2021,06,28,14,28,36.60
2021,06,28,14,29,36.70
2021,06,28,14,30,36.70
2021,06,28,14,31,36.70
2021,06,28,14,32,36.70
2021,06,28,14,33,36.80
2021,06,28,14,34,36.80
2021,06,28,14,35,36.90
2021,06,28,14,36,37.00
2021,06,28,14,37,37.10
2021,06,28,14,38,37.10
2021,06,28,14,39,37.20
2021,06,28,14,40,37.20
2021,06,28,14,41,37.20
2021,06,28,14,42,37.10
2021,06,28,14,43,37.10
2021,06,28,14,44,37.20
2021,06,28,14,45,37.20
2021,06,28,14,46,37.20
2021,06,28,14,47,37.20
2021,06,28,14,48,37.10
2021,06,28,14,49,37.10
2021,06,28,14,50,37.10
2021,06,28,14,51,37.20
2021,06,28,14,52,37.20
2021,06,28,14,53,37.10
2021,06,28,14,54,37.00
2021,06,28,14,55,36.90
2021,06,28,14,56,36.80
2021,06,28,14,57,36.80
2021,06,28,14,58,36.80
2021,06,28,14,59,36.80
2021,06,28,15,00,36.80
2021,06,28,15,01,36.80
2021,06,28,15,02,36.70
2021,06,28,15,03,36.70
2021,06,28,15,04,36.70
2021,06,28,15,05,36.70
2021,06,28,15,06,36.80
2021,06,28,15,07,36.80
2021,06,28,15,08,36.90
2021,06,28,15,09,36.90
2021,06,28,15,10,37.00
2021,06,28,15,11,37.00
2021,06,28,15,12,37.00
2021,06,28,15,13,37.10
2021,06,28,15,14,37.20
2021,06,28,15,15,37.20
2021,06,28,15,16,37.30
2021,06,28,15,17,37.40
2021,06,28,15,18,37.40
2021,06,28,15,19,37.40
2021,06,28,15,20,37.40
2021,06,28,15,21,37.40
2021,06,28,15,22,37.30
2021,06,28,15,23,37.30
2021,06,28,15,24,37.30
2021,06,28,15,25,37.30
2021,06,28,15,26,37.30
2021,06,28,15,27,37.30
2021,06,28,15,28,37.40
2021,06,28,15,29,37.50
2021,06,28,15,30,37.60
2021,06,28,15,31,37.60
2021,06,28,15,32,37.60
2021,06,28,15,33,37.50
2021,06,28,15,34,37.40
2021,06,28,15,35,37.50
2021,06,28,15,36,37.50
2021,06,28,15,37,37.70
2021,06,28,15,38,37.70
2021,06,28,15,39,37.80
2021,06,28,15,40,37.80
2021,06,28,15,41,37.70
2021,06,28,15,42,37.70
2021,06,28,15,43,37.70
2021,06,28,15,44,37.70
2021,06,28,15,45,37.70
2021,06,28,15,46,37.70
2021,06,28,15,47,37.70
2021,06,28,15,48,37.80
2021,06,28,15,49,37.80
2021,06,28,15,50,37.80
2021,06,28,15,51,37.80
2021,06,28,15,52,37.70
2021,06,28,15,53,37.70
2021,06,28,15,54,37.70
2021,06,28,15,55,37.70
2021,06,28,15,56,37.80
2021,06,28,15,57,37.80
2021,06,28,15,58,37.90
2021,06,28,15,59,37.90
2021,06,28,16,00,38.00
2021,06,28,16,01,38.10
2021,06,28,16,02,38.20
2021,06,28,16,03,38.30
2021,06,28,16,04,38.30
2021,06,28,16,05,38.30
2021,06,28,16,06,38.30
2021,06,28,16,07,38.30
2021,06,28,16,08,38.30
2021,06,28,16,09,38.30
2021,06,28,16,10,38.30
2021,06,28,16,11,38.40
2021,06,28,16,12,38.40
2021,06,28,16,13,38.40
2021,06,28,16,14,38.40
2021,06,28,16,15,38.40
2021,06,28,16,16,38.40
2021,06,28,16,17,38.40
2021,06,28,16,18,38.40
2021,06,28,16,19,38.40
2021,06,28,16,20,38.40
2021,06,28,16,21,38.40
2021,06,28,16,22,38.30
2021,06,28,16,23,38.30
2021,06,28,16,24,38.30
2021,06,28,16,25,38.30
2021,06,28,16,26,38.30
2021,06,28,16,27,38.30
2021,06,28,16,28,38.30
2021,06,28,16,29,38.20
2021,06,28,16,30,38.20
2021,06,28,16,31,38.20
2021,06,28,16,32,38.20
2021,06,28,16,33,38.30
2021,06,28,16,34,38.40
2021,06,28,16,35,38.40
2021,06,28,16,36,38.40
2021,06,28,16,37,38.40
2021,06,28,16,38,38.40
2021,06,28,16,39,38.50
2021,06,28,16,40,38.50
2021,06,28,16,41,38.50
2021,06,28,16,42,38.50
2021,06,28,16,43,38.40
2021,06,28,16,44,38.40
2021,06,28,16,45,38.50
2021,06,28,16,46,38.60
2021,06,28,16,47,38.60
2021,06,28,16,48,38.70
2021,06,28,16,49,38.70
2021,06,28,16,50,38.60
2021,06,28,16,51,38.60
2021,06,28,16,52,38.50
2021,06,28,16,53,38.40
2021,06,28,16,54,38.40
2021,06,28,16,55,38.40
2021,06,28,16,56,38.40
2021,06,28,16,57,38.40
2021,06,28,16,58,38.40
2021,06,28,16,59,38.40
2021,06,28,17,00,38.50
2021,06,28,17,01,38.50
2021,06,28,17,02,38.50
2021,06,28,17,03,38.50
2021,06,28,17,04,38.50
2021,06,28,17,05,38.50
2021,06,28,17,06,38.50
2021,06,28,17,07,38.50
2021,06,28,17,08,38.60
2021,06,28,17,09,38.60
2021,06,28,17,10,38.70
2021,06,28,17,11,38.70
2021,06,28,17,12,38.60
2021,06,28,17,13,38.60
2021,06,28,17,14,38.60
2021,06,28,17,15,38.60
2021,06,28,17,16,38.50
2021,06,28,17,17,38.50
2021,06,28,17,18,38.50
2021,06,28,17,19,38.50